Location: Namasale
(1.5000°N, 32.6167°E)
Time: 18:41:26
(UTC+00:00)

Courier 1B - Pass Details

Date: 24 April 2021
Orbit: 962 x 1209 km, 28.3° (Epoch: 09 May)

Event Time Altitude Azimuth Distance (km) Brightness Sun altitude
Rises 06:11:56 0° 256° (WSW) 4,039 10.2 35.4°
Reaches altitude 10° 06:15:01 10° 264° (W) 3,044 9.7 36.1°
Maximum altitude 06:21:57 40° 331° (NNW) 1,573 8.9 37.8°
Drops below altitude 10° 06:28:29 10° 39° (NE) 2,869 10.8 39.4°
Sets 06:31:19 0° 46° (NE) 3,784 11.3 40.1°
